Location: Gwatt
(46.7204°N, 7.6223°E)
Time: 12:06:14
(UTC+00:00)

Transit 2A - Pass Details

Date: 14 May 2021
Orbit: 601 x 958 km, 66.7° (Epoch: 15 June)

Event Time Altitude Azimuth Distance (km) Brightness Sun altitude
Exits shadow 02:47:22 - 272° (W) 2,352 8.1 -10.4°
Reaches altitude 10° 02:48:45 10° 284° (WNW) 1,970 7.8 -10.3°
Maximum altitude 02:51:32 16° 324° (NW) 1,584 7.7 -9.9°
Drops below altitude 10° 02:54:18 10° 4° (N) 1,953 8.8 -9.6°
Sets 02:57:20 0° 26° (NNE) 2,870 10.3 -9.2°
